Content
SEND FEEDBACK

Daily
Averages
Monthly
Summary
United States of America

PONDEROSA - SOUTH, NEW MEXICO


Home > North America > United States > New Mexico
Elevation: 1934 meters     Latitude: 35 39N     Longitude: 106 40W

WEATHER
 
SELECT A DAY
Number of Records: 246,320;   Date Range: 1/1/95 - 11/21/14
 
SHARE

PRINT THIS DATA

[ ← Previous Day ]
WEATHER ALMANAC - 13 FEBRUARY, 2013
[ Next Day → ]
[ °F ]   °C
Weather ElementAverageHighLow
Temperature-1.2 °C5 °C (3:35 pm)-7.5 °C (6:15 am)
Dewpoint-11.7 °C-8.6 °C (11:15 pm)-14.3 °C (11:35 am)
Humidity47.5 %69 % (7:15 am)29 % (2:15 pm)
Barometer1018.3 hPa1019.6 hPa (8:35 am)1016.6 hPa (4:15 pm)
Wind Speed4 km/h18.5 km/h (7:15 pm)
Wind Gust27.8 km/h (7:15 pm)
Weather ElementAverage
Visibility16.1 km
Wind DirectionNE (48 °)

Weather ElementTotal
Precipitation---
Heating Degree Days19.6 (Base 18.3)
Averaged from 71 records on 13 February, 2013
WEATHER CONDITIONS BREAKOUT
WIND DIRECTION BREAKOUT
WEATHER BY HOUR - 13 FEBRUARY, 2013
[ °F ]   °C
Local TimeTemperatureDewpointHumidityBarometerVisibilityWind DirectionWind SpeedGust SpeedPrecipitationEventsConditions
12:35 AM-4.7 °C-13 °C53 %1019.3 hPa16.1 kmCalmClear
12:55 AM-4.2 °C-13 °C51 %1019.3 hPa16.1 kmCalmClear
1:15 AM-4.5 °C-13.7 °C49 %1019.3 hPa16.1 kmCalmClear
1:35 AM-4.8 °C-13.6 °C51 %1019.3 hPa16.1 kmCalmClear
1:55 AM-4.9 °C-14.2 °C49 %1019.3 hPa16.1 kmCalmClear
2:15 AM-5.2 °C-13.6 °C52 %1019.3 hPa16.1 kmCalmClear
2:35 AM-5.5 °C-13 °C56 %1019.3 hPa16.1 kmCalmClear
2:55 AM-5.8 °C-12.7 °C59 %1019 hPa16.1 kmCalmClear
3:15 AM-6 °C-12.9 °C59 %1018.6 hPa16.1 kmCalmClear
3:35 AM-6.5 °C-13 °C61 %1018.6 hPa16.1 kmCalmClear
3:55 AM-6.5 °C-13.2 °C60 %1018.6 hPa16.1 kmCalmClear
4:15 AM-6.2 °C-13.1 °C59 %1018.6 hPa16.1 kmCalmClear
4:35 AM-6.1 °C-12.7 °C60 %1018.6 hPa16.1 kmCalmClear
4:55 AM-6.2 °C-12.5 °C62 %1018.3 hPa16.1 kmCalmClear
5:15 AM-6.3 °C-13.9 °C56 %1018.3 hPa16.1 kmCalmClear
5:35 AM-6.8 °C-13 °C62 %1018.6 hPa16.1 kmCalmClear
5:55 AM-6.9 °C-13.1 °C62 %1018.6 hPa16.1 kmCalmClear
6:15 AM-7.5 °C-13.4 °C63 %1018.6 hPa16.1 kmCalmClear
6:35 AM-7.5 °C-13.1 °C65 %1018.3 hPa16.1 kmCalmClear
6:55 AM-7.5 °C-12.4 °C68 %1018.6 hPa16.1 kmCalmClear
7:15 AM-7.3 °C-12.2 °C69 %1019 hPa16.1 kmNorth (350°)9.3 km/hClear
7:35 AM-6.1 °C-11.9 °C64 %1019 hPa16.1 kmCalmClear
7:55 AM-5.7 °C-12 °C62 %1019.3 hPa16.1 kmNNE (30°)5.6 km/hClear
8:15 AM-5.6 °C-11.4 °C64 %1019.3 hPa16.1 kmNNE (20°)5.6 km/hClear
8:35 AM-5.3 °C-10.8 °C66 %1019.6 hPa16.1 kmNNE (30°)5.6 km/hClear
8:55 AM-4.5 °C-10.5 °C63 %1019.6 hPa16.1 kmEast (80°)11.1 km/hClear
9:15 AM-4.1 °C-10.6 °C61 %1019.6 hPa16.1 kmNE (50°)11.1 km/hClear
9:35 AM-3.8 °C-10.6 °C60 %1019.6 hPa16.1 kmCalmClear
9:55 AM-2.7 °C-10.5 °C56 %1019.6 hPa16.1 kmCalmClear
10:15 AM-1.5 °C-10.5 °C51 %1019.6 hPaCalmClear
10:35 AM-0.6 °C-11 °C46 %1019.6 hPa16.1 kmENE (60°)9.3 km/hClear
10:55 AM0.2 °C-11.2 °C43 %1019.3 hPaNE (50°)11.1 km/hClear
11:15 AM0.7 °C-11.7 °C40 %1019.3 hPa16.1 kmNorth (10°)5.6 km/hClear
11:35 AM0.8 °C-14.3 °C32 %1019 hPa16.1 kmNE (40°)13 km/hClear
11:55 AM1.4 °C-13.9 °C32 %1019 hPa16.1 kmNE (50°)14.8 km/hClear
12:15 PM1.7 °C-13.9 °C31 %1018.6 hPa16.1 kmNNE (30°)14.8 km/h25.9 km/hClear
12:35 PM2.1 °C-13.7 °C31 %1018.3 hPa16.1 kmNE (40°)13 km/hClear
12:55 PM2.6 °C-13.3 °C31 %1017.9 hPa16.1 kmEast (80°)13 km/hClear
1:15 PM3 °C-12.8 °C31 %1017.6 hPa16.1 kmNE (50°)9.3 km/hClear
1:35 PM3.4 °C-12.9 °C30 %1017.3 hPa16.1 kmENE (60°)11.1 km/hClear
1:55 PM3.9 °C-12.4 °C30 %1017.3 hPa16.1 kmCalmClear
2:15 PM4.4 °C-12.5 °C29 %1017.3 hPa16.1 kmCalmClear
2:35 PM4.5 °C-11.9 °C30 %1016.9 hPa16.1 kmENE (60°)11.1 km/hClear
2:55 PM4.8 °C-12.1 °C29 %1016.9 hPa16.1 kmCalmClear
3:15 PM4.8 °C-12 °C29 %1016.9 hPa16.1 kmCalmClear
3:35 PM5 °C-11.6 °C29 %1016.9 hPa16.1 kmCalmClear
3:55 PM5 °C-11.7 °C29 %1016.9 hPa16.1 kmENE (70°)9.3 km/hClear
4:15 PM4.9 °C-11.7 °C29 %1016.6 hPa16.1 kmEast (100°)9.3 km/hClear
4:35 PM4.9 °C-11.7 °C29 %1016.9 hPa16.1 kmENE (70°)11.1 km/hClear
4:55 PM4.5 °C-11.7 °C30 %1016.9 hPa16.1 kmEast (80°)5.6 km/hClear
5:15 PM4.1 °C-11.7 °C31 %1016.9 hPa16.1 kmEast (100°)5.6 km/hClear
5:35 PM4 °C-11.7 °C31 %1016.9 hPa16.1 kmSE (140°)5.6 km/hClear
5:55 PM3.6 °C-11.7 °C32 %1017.3 hPa16.1 kmSE (130°)5.6 km/hClear
6:15 PM3.5 °C-11.7 °C32 %1017.6 hPa16.1 kmCalmClear
6:35 PM3.3 °C-11.7 °C33 %1017.9 hPa16.1 kmCalmClear
6:55 PM1.9 °C-10.8 °C39 %1017.9 hPa16.1 kmNNW (340°)11.1 km/hClear
7:15 PM1.2 °C-9.5 °C45 %1017.9 hPa16.1 kmNNW (340°)18.5 km/h27.8 km/hClear
7:35 PM0.9 °C-8.8 °C49 %1018.3 hPa16.1 kmNNW (340°)11.1 km/hClear
7:55 PM0.7 °C-9 °C49 %1018.3 hPa16.1 kmWNW (290°)7.4 km/hClear
8:15 PM0.4 °C-9.3 °C49 %1018.3 hPa16.1 kmCalmClear
8:35 PM0.9 °C-10 °C45 %1018.3 hPa16.1 kmNW (320°)7.4 km/hClear
8:55 PM1.1 °C-10.2 °C43 %1018.3 hPa16.1 kmCalmClear
9:15 PM0.1 °C-9.9 °C48 %1018.6 hPa16.1 kmCalmClear
9:35 PM-0.1 °C-9.5 °C50 %1018.6 hPa16.1 kmCalmClear
9:55 PM-0.6 °C-9.5 °C52 %1018.6 hPa16.1 kmCalmClear
10:15 PM0 °C-9.6 °C49 %1018.3 hPa16.1 kmCalmClear
10:35 PM-0.8 °C-8.9 °C55 %1018.6 hPa16.1 kmCalmClear
10:55 PM-0.9 °C-8.8 °C56 %1018.6 hPa16.1 kmCalmClear
11:15 PM-1.2 °C-8.6 °C58 %1018.6 hPa16.1 kmCalmClear
11:35 PM-1.8 °C-8.9 °C59 %1018.6 hPa16.1 kmCalmClear
11:55 PM-1.3 °C-8.7 °C58 %1019 hPa16.1 kmCalmClear
Hourly data recorded from KLAM, located 0 kilometers away from Ponderosa - South, New Mexico







STORIES FROM OUR PARTNERS